Avocado (520, 521) Station Data

Red Flag Warning: No
Fire Weather Zone: 250
SDGE Region: North East
Lat/Lon: 33.392/-117.255

Observations

Time Wind Speed/Gust Temp(F) RH Fuel Moist Fuel Temp(F) Dewpt(F) Tmax(F) Tmin(F) Accum Precip 10-min Precip SL Press(mb)
4/26 2:50am 13 2 G 3 48° 100% - - 48° 52.1° 47.8° - - -
4/26 2:40am 7 2 G 4 48° 100% - - 48° 52.1° 47.8° - - -
4/26 2:30am 9 2 G 4 49° 100% - - 49° 52.1° 48° - - -
4/26 2:20am 2 2 G 3 50° 100% - - 50° 52.1° 49° - - -
4/26 2:10am 352 1 G 2 49° 100% - - 49° 52.1° 49° - - -
4/26 2:00am 4 1 G 3 49° 100% - - 49° 52.1° 49° - - -
4/26 1:50am 359 2 G 3 50° 100% - - 50° 52.1° 49.2° - - -
4/26 1:40am 10 2 G 4 50° 100% - - 50° 52.1° 49.2° - - -
4/26 1:30am 28 1 G 2 50° 100% - - 50° 52.1° 49.2° - - -
4/26 1:20am 41 1 G 2 50° 100% - - 50° 52.1° 49.2° - - -
4/26 1:10am 349 2 G 4 50° 100% - - 50° 52.1° 49.2° - - -
4/26 1:00am 24 1 G 3 50° 100% - - 50° 52.1° 49.2° - - -
4/26 12:50am 8 2 G 3 51° 100% - - 51° 52.1° 50.2° - - -
4/26 12:40am 11 1 G 2 52° 100% - - 52° 52.1° 50.9° - - -
4/26 12:30am 306 1 G 1 52° 100% - - 52° 52.1° 50.9° - - -
4/26 12:20am 353 1 G 3 51° 100% - - 51° 52.1° 50.9° - - -
4/26 12:10am 3 3 G 4 52° 100% - - 52° 52.1° 51.3° - - -
4/26 12:00am 359 1 G 2 52° 100% - - 52° 70.3° 51.8° - - -
4/25 11:50pm 353 1 G 2 53° 100% - - 53° 70.3° 52.1° - - -
4/25 11:40pm 353 0 G 1 53° 100% - - 53° 70.3° 52.4° - - -
4/25 11:30pm 356 1 G 3 53° 100% - - 53° 70.3° 52.4° - - -
4/25 11:20pm 358 2 G 3 53° 100% - - 53° 70.3° 52.9° - - -
4/25 11:10pm 324 1 G 3 53° 100% - - 53° 70.3° 53.1° - - -
4/25 11:00pm 348 2 G 3 54° 100% - - 54° 70.3° 53.2° - - -
4/25 10:50pm 4 0 G 2 54° 100% - - 54° 70.3° 53.8° - - -
4/25 10:40pm 349 0 G 0 54° 100% - - 54° 70.3° 53.9° - - -
4/25 10:30pm 349 0 G 1 54° 98% - - 54° 70.3° 54.1° - - -
4/25 10:20pm 339 0 G 1 55° 98% - - 54° 70.3° 54.3° - - -
4/25 10:10pm 347 1 G 2 55° 99% - - 54° 70.3° 54.3° - - -
4/25 10:00pm 3 1 G 3 55° 91% - - 52° 70.3° 54.5° - - -
4/25 9:50pm 5 2 G 3 56° 87% - - 52° 70.3° 54.9° - - -
4/25 9:40pm 350 0 G 2 56° 85% - - 52° 70.3° 55.8° - - -
4/25 9:30pm 28 1 G 2 57° 83% - - 51° 70.3° 56.2° - - -
4/25 9:20pm 60 1 G 3 58° 81% - - 52° 70.3° 56.3° - - -
4/25 9:10pm 123 2 G 4 58° 80% - - 52° 70.3° 56.3° - - -
4/25 9:00pm 151 2 G 5 58° 80% - - 52° 70.3° 56.3° - - -
4/25 8:50pm 154 2 G 4 58° 79% - - 51° 70.3° 56.3° - - -
4/25 8:40pm 185 2 G 3 58° 77% - - 51° 70.3° 56.3° - - -
4/25 8:30pm 172 2 G 6 58° 76% - - 51° 70.3° 56.3° - - -
4/25 8:20pm 173 2 G 4 58° 74% - - 50° 70.3° 56.3° - - -
4/25 8:10pm 180 3 G 5 59° 73% - - 50° 70.3° 56.3° - - -
4/25 8:00pm 185 2 G 6 59° 71% - - 50° 70.3° 56.3° - - -
4/25 7:50pm 171 3 G 5 59° 69% - - 49° 70.3° 56.3° - - -
4/25 7:40pm 165 4 G 7 60° 68% - - 49° 70.3° 56.3° - - -
4/25 7:30pm 153 4 G 8 60° 66% - - 49° 70.3° 56.3° - - -
4/25 7:20pm 162 4 G 8 61° 63% - - 48° 70.3° 56.3° - - -
4/25 7:10pm 152 6 G 10 61° 60% - - 47° 70.3° 56.3° - - -
4/25 7:00pm 163 5 G 9 62° 55% - - 46° 70.3° 56.3° - - -
4/25 6:50pm 166 6 G 10 63° 49% - - 44° 70.3° 56.3° - - -
4/25 6:40pm 168 4 G 9 64° 46% - - 43° 70.3° 56.3° - - -
4/25 6:30pm 168 4 G 9 65° 43% - - 42° 70.3° 56.3° - - -
4/25 6:20pm 174 4 G 10 66° 42% - - 42° 70.3° 56.3° - - -
4/25 6:10pm 178 5 G 10 66° 42% - - 42° 70.3° 56.3° - - -
4/25 6:00pm 188 5 G 10 66° 39% - - 41° 70.3° 56.3° - - -
4/25 5:50pm 197 5 G 10 67° 39% - - 41° 70.3° 56.3° - - -
4/25 5:40pm 207 5 G 10 67° 38% - - 41° 70.3° 56.3° - - -
4/25 5:30pm 197 5 G 13 67° 40% - - 42° 70.3° 56.3° - - -
4/25 5:20pm 185 5 G 10 68° 43% - - 44° 70.3° 56.3° - - -
4/25 5:10pm 170 5 G 12 68° 44% - - 46° 70.3° 56.3° - - -
4/25 5:00pm 198 4 G 8 69° 43% - - 46° 70.3° 56.3° - - -
4/25 4:50pm 192 5 G 12 69° 44% - - 46° 70.3° 56.3° - - -
4/25 4:40pm 192 6 G 14 69° 45% - - 47° 70.3° 56.3° - - -
4/25 4:30pm 189 6 G 11 69° 47% - - 48° 70.3° 56.3° - - -
4/25 4:20pm 203 7 G 13 69° 48% - - 49° 70.3° 56.3° - - -
4/25 4:10pm 198 7 G 13 69° 48% - - 49° 70.3° 56.3° - - -
4/25 4:00pm 187 7 G 14 69° 48% - - 49° 70.3° 56.3° - - -
4/25 3:50pm 189 6 G 14 69° 47% - - 48° 70.3° 56.3° - - -
4/25 3:40pm 191 5 G 12 69° 49% - - 49° 70.3° 56.3° - - -
4/25 3:30pm 205 5 G 10 68° 51% - - 49° 69.3° 56.3° - - -
4/25 3:20pm 196 6 G 11 67° 52% - - 49° 69.3° 56.3° - - -
4/25 3:10pm 206 5 G 11 69° 50% - - 49° 69.3° 56.3° - - -
4/25 3:00pm 203 5 G 11 68° 52% - - 49° 69.3° 56.3° - - -
4/25 2:50pm 203 6 G 12 67° 52% - - 49° 69.3° 56.3° - - -
4/25 2:40pm 204 6 G 11 67° 52% - - 48° 69.3° 56.3° - - -
4/25 2:30pm 196 6 G 12 66° 53% - - 49° 69.3° 56.3° - - -
4/25 2:20pm 197 7 G 13 66° 53% - - 48° 69.3° 56.3° - - -
4/25 2:10pm 206 6 G 11 67° 50% - - 48° 69.3° 56.3° - - -
4/25 2:00pm 212 6 G 11 68° 50% - - 48° 69.3° 56.3° - - -
4/25 1:50pm 205 6 G 12 68° 52% - - 49° 69.3° 56.3° - - -
4/25 1:40pm 203 6 G 14 67° 54% - - 50° 69.3° 56.3° - - -
4/25 1:30pm 207 6 G 10 67° 53% - - 50° 69.3° 56.3° - - -
4/25 1:20pm 212 6 G 11 68° 52% - - 50° 69.3° 56.3° - - -
4/25 1:10pm 208 8 G 13 68° 51% - - 49° 69.3° 56.3° - - -
4/25 1:00pm 222 5 G 12 68° 52% - - 50° 69.3° 56.3° - - -
4/25 12:50pm 205 7 G 13 67° 55% - - 50° 68.3° 56.3° - - -
4/25 12:40pm 208 7 G 14 67° 54% - - 50° 68.3° 56.3° - - -
4/25 12:30pm 206 6 G 13 67° 56% - - 50° 68.3° 56.3° - - -
4/25 12:20pm 206 5 G 10 67° 54% - - 50° 68.3° 56.3° - - -
4/25 12:10pm 198 6 G 12 66° 56% - - 50° 68.3° 56.3° - - -
4/25 12:00pm 203 7 G 14 67° 55% - - 50° 68.3° 56.3° - - -
4/25 11:50am 210 7 G 14 67° 53% - - 49° 68.3° 56.3° - - -
4/25 11:40am 208 8 G 14 67° 53% - - 49° 68° 56.3° - - -
4/25 11:30am 204 5 G 12 67° 54% - - 50° 67.9° 56.3° - - -
4/25 11:20am 198 6 G 12 66° 59% - - 51° 66.8° 56.3° - - -
4/25 11:10am 188 6 G 13 65° 60% - - 51° 66.1° 56.3° - - -
4/25 11:00am 188 6 G 12 65° 60% - - 51° 66.1° 56.3° - - -
4/25 10:50am 185 6 G 12 65° 62% - - 51° 66.1° 56.3° - - -
4/25 10:40am 194 7 G 14 64° 65% - - 52° 66.1° 56.3° - - -
4/25 10:30am 198 6 G 11 64° 70% - - 54° 66.1° 56.3° - - -
4/25 10:20am 203 6 G 14 64° 68% - - 53° 66.1° 56.3° - - -
4/25 10:10am 166 5 G 12 65° 61% - - 51° 66.1° 56.3° - - -
4/25 10:00am 152 5 G 10 64° 64% - - 52° 66° 56.3° - - -
4/25 9:50am 178 6 G 12 64° 63% - - 51° 64.6° 56.3° - - -
4/25 9:40am 176 5 G 11 63° 63% - - 51° 64.6° 56.3° - - -
4/25 9:30am 179 6 G 12 63° 68% - - 52° 63.8° 56.3° - - -
4/25 9:20am 179 6 G 11 62° 70% - - 52° 62.7° 56.3° - - -
4/25 9:10am 151 5 G 9 62° 70% - - 52° 62.7° 56.3° - - -
4/25 9:00am 170 5 G 8 61° 78% - - 54° 62.2° 56.3° - - -
4/25 8:50am 184 4 G 7 60° 83% - - 55° 61.5° 56.3° - - -
4/25 8:40am 182 4 G 10 61° 80% - - 55° 61.5° 56.3° - - -
4/25 8:30am 170 4 G 9 61° 80% - - 55° 61.5° 56.3° - - -
4/25 8:20am 174 5 G 9 61° 81% - - 55° 61.2° 56.3° - - -
4/25 8:10am 179 6 G 10 60° 86% - - 56° 60.7° 56.3° - - -
4/25 8:00am 177 4 G 9 60° 92% - - 58° 60.4° 56.3° - - -
4/25 7:50am 170 5 G 9 59° 100% - - 59° 59.1° 56.3° - - -
4/25 7:40am 191 4 G 7 58° 100% - - 58° 58.6° 56.3° - - -
4/25 7:30am 181 3 G 8 58° 100% - - 58° 58.5° 56.3° - - -
4/25 7:20am 182 3 G 6 58° 100% - - 58° 58.1° 56.3° - - -
4/25 7:10am 136 1 G 3 58° 100% - - 58° 57.8° 56.3° - - -
4/25 7:00am 283 1 G 3 57° 100% - - 57° 57.8° 56.3° - - -
4/25 6:50am 216 2 G 4 57° 100% - - 57° 57.8° 56.3° - - -
4/25 6:40am 165 1 G 5 57° 100% - - 57° 57.8° 56.3° - - -
4/25 6:30am 173 3 G 7 57° 100% - - 57° 57.8° 56.3° - - -
4/25 6:20am 157 3 G 6 57° 100% - - 57° 57.8° 56.3° - - -
4/25 6:10am 108 2 G 6 57° 100% - - 57° 57.8° 56.3° - - -
4/25 6:00am 189 2 G 5 57° 100% - - 57° 57.8° 56.3° - - -
4/25 5:50am 172 3 G 5 57° 100% - - 57° 57.8° 56.3° - - -
4/25 5:40am 137 3 G 6 57° 100% - - 57° 57.8° 56.3° - - -
4/25 5:30am 142 2 G 5 57° 100% - - 57° 57.8° 56.3° - - -
4/25 5:20am 148 3 G 7 57° 100% - - 57° 57.8° 56.3° - - -
4/25 5:10am 147 4 G 8 57° 100% - - 57° 57.8° 56.3° - - -
4/25 5:00am 141 4 G 6 57° 100% - - 57° 57.8° 56.3° - - -
4/25 4:50am 147 3 G 7 57° 100% - - 57° 57.8° 56.3° - - -
4/25 4:40am 150 3 G 7 57° 100% - - 57° 57.8° 56.3° - - -
4/25 4:30am 159 4 G 7 57° 100% - - 57° 57.8° 56.3° - - -
4/25 4:20am 148 4 G 7 57° 100% - - 57° 57.8° 56.3° - - -
4/25 4:10am 167 4 G 7 57° 100% - - 57° 57.8° 56.3° - - -
4/25 4:00am 172 4 G 8 57° 100% - - 57° 57.8° 56.3° - - -
4/25 3:50am 173 5 G 10 57° 100% - - 57° 57.8° 56.3° - - -
4/25 3:40am 174 5 G 9 57° 100% - - 57° 57.8° 56.3° - - -
4/25 3:30am 173 4 G 8 57° 100% - - 57° 57.8° 56.3° - - -
4/25 3:20am 190 3 G 6 57° 100% - - 57° 57.8° 56.3° - - -
4/25 3:10am 179 3 G 8 58° 100% - - 58° 57.8° 56.3° - - -
4/25 3:00am 186 3 G 6 58° 100% - - 58° 57.8° 56.3° - - -
4/25 2:50am 188 2 G 6 58° 100% - - 58° 57.8° 56.3° - - -
4/25 2:40am 191 3 G 7 58° 100% - - 58° 57.8° 56.3° - - -
4/25 2:30am 185 3 G 6 57° 100% - - 58° 57.7° 56.3° - - -
4/25 2:20am 185 2 G 5 57° 100% - - 57° 57.7° 56.3° - - -
4/25 2:10am 190 3 G 4 58° 100% - - 58° 57.7° 56.3° - - -
4/25 2:00am 203 2 G 5 58° 100% - - 58° 57.7° 56.3° - - -
4/25 1:50am 203 3 G 5 58° 100% - - 58° 57.7° 56.3° - - -
4/25 1:40am 196 3 G 7 58° 100% - - 58° 57.7° 56.3° - - -
4/25 1:30am 196 2 G 4 57° 100% - - 57° 57.6° 56.3° - - -
4/25 1:20am 221 2 G 3 57° 100% - - 57° 57.6° 56.3° - - -
4/25 1:10am 215 2 G 4 57° 100% - - 57° 57.6° 56.3° - - -
4/25 1:00am 180 2 G 5 57° 100% - - 57° 57.6° 56.3° - - -
4/25 12:50am 236 2 G 4 57° 100% - - 57° 57.6° 56.3° - - -
4/25 12:40am 232 3 G 4 57° 100% - - 57° 57.6° 56.8° - - -
4/25 12:30am 243 2 G 4 57° 100% - - 57° 57.6° 57° - - -
4/25 12:20am 230 2 G 4 57° 100% - - 57° 57.6° 57° - - -
4/25 12:10am 203 2 G 3 57° 100% - - 57° 57.5° 57° - - -
4/25 12:00am 220 2 G 6 57° 100% - - 57° 69.8° 56.7° - - -
4/24 11:50pm 206 3 G 6 57° 100% - - 57° 69.8° 56.7° - - -
4/24 11:40pm 194 3 G 6 57° 100% - - 57° 69.8° 56.7° - - -
4/24 11:30pm 198 3 G 6 57° 100% - - 57° 69.8° 56.9° - - -
4/24 11:20pm 189 4 G 8 58° 100% - - 58° 69.8° 56.9° - - -
4/24 11:10pm 138 2 G 5 58° 100% - - 58° 69.8° 56.9° - - -
4/24 11:00pm 160 3 G 6 57° 100% - - 57° 69.8° 56.9° - - -
4/24 10:50pm 177 2 G 5 57° 100% - - 57° 69.8° 56.9° - - -
4/24 10:40pm 180 1 G 5 57° 100% - - 57° 69.8° 56.9° - - -
4/24 10:30pm 195 3 G 6 57° 100% - - 57° 69.8° 57.2° - - -
4/24 10:20pm 191 2 G 5 57° 100% - - 57° 69.8° 57.2° - - -
4/24 10:10pm 198 2 G 4 58° 100% - - 58° 69.8° 57.4° - - -
4/24 10:00pm 206 3 G 5 58° 100% - - 58° 69.8° 57.5° - - -
4/24 9:50pm 204 3 G 7 58° 100% - - 58° 69.8° 57.5° - - -
4/24 9:40pm 186 3 G 6 58° 100% - - 58° 69.8° 57.5° - - -
4/24 9:30pm 193 3 G 5 58° 100% - - 58° 69.8° 57.5° - - -
4/24 9:20pm 195 3 G 6 58° 100% - - 58° 69.8° 57.5° - - -
4/24 9:10pm 189 4 G 8 59° 100% - - 59° 69.8° 57.5° - - -
4/24 9:00pm 190 4 G 8 59° 100% - - 59° 69.8° 57.5° - - -
4/24 8:50pm 193 5 G 9 59° 100% - - 59° 69.8° 57.5° - - -
4/24 8:40pm 196 4 G 7 59° 100% - - 59° 69.8° 57.5° - - -
4/24 8:30pm 190 4 G 10 59° 100% - - 59° 69.8° 57.5° - - -
4/24 8:20pm 190 4 G 9 59° 100% - - 59° 69.8° 57.5° - - -
4/24 8:10pm 185 4 G 7 60° 94% - - 58° 69.8° 57.5° - - -
4/24 8:00pm 181 4 G 8 60° 87% - - 56° 69.8° 57.5° - - -
4/24 7:50pm 194 4 G 9 60° 88% - - 56° 69.8° 57.5° - - -
4/24 7:40pm 188 5 G 10 60° 88% - - 56° 69.8° 57.5° - - -
4/24 7:30pm 185 5 G 10 60° 89% - - 57° 69.8° 57.5° - - -
4/24 7:20pm 186 4 G 10 60° 88% - - 57° 69.8° 57.5° - - -
4/24 7:10pm 188 5 G 9 60° 87% - - 57° 69.8° 57.5° - - -
4/24 7:00pm 193 3 G 7 61° 85% - - 56° 69.8° 57.5° - - -
4/24 6:50pm 193 6 G 10 61° 82% - - 56° 69.8° 57.5° - - -
4/24 6:40pm 193 5 G 10 62° 79% - - 55° 69.8° 57.5° - - -
4/24 6:30pm 197 5 G 11 62° 78% - - 55° 69.8° 57.5° - - -
4/24 6:20pm 194 5 G 12 62° 75% - - 54° 69.8° 57.5° - - -
4/24 6:10pm 190 6 G 10 63° 73% - - 54° 69.8° 57.5° - - -
4/24 6:00pm 189 6 G 11 63° 72% - - 54° 69.8° 57.5° - - -